This demonstration page uses our WeatherBlox Daily Observations layout. Learn more.

Left ArrowRight Arrow

40.92501, -98.34201

Hourly Observations for July 4, 2021

Temp ( °F °C ) Dew Point ( °F °C ) Humidity (%) Winds ( mph kmh ) Pressure ( in mb ) Visibility ( mi km ) Precip ( " mm )
12:53 am 00:53 Clear 74 23.3 55 12.8 52 52 S 13 20 29.94 1014 10 16 0.00 0.00
1:53 am 01:53 Clear 73 22.8 55 12.8 53 53 S 13 20 29.93 1014 10 16 0.00 0.00
2:53 am 02:53 Clear 74 23.3 55 12.8 52 52 SSW 15 24 29.92 1013 10 16 0.00 0.00
3:53 am 03:53 Mostly Cloudy 74 23.3 55 12.8 52 52 SSW 14 22 29.91 1013 10 16 0.00 0.00
4:53 am 04:53 Partly Cloudy 73 22.8 54 12.2 51 51 SSW 14 22 29.91 1013 10 16 0.00 0.00
5:53 am 05:53 Mostly Clear 72 22.2 54 12.2 53 53 S 16 26 29.90 1013 10 16 0.00 0.00
6:53 am 06:53 Sunny 71 21.7 56 13.3 59 59 S 12 19 29.91 1013 10 16 0.00 0.00
7:53 am 07:53 Sunny 72 22.2 58 14.4 61 61 S 12 19 29.92 1013 10 16 0.00 0.00
8:53 am 08:53 Sunny 75 23.9 62 16.7 64 64 SSW 12 19 29.93 1014 10 16 0.00 0.00
9:53 am 09:53 Partly Cloudy 82 27.8 65 18.3 56 56 SSW 13 20 29.93 1014 10 16 0.00 0.00
10:53 am 10:53 Sunny 83 28.3 66 18.9 57 57 S 13 20 29.92 1013 10 16 0.00 0.00
11:53 am 11:53 Sunny 84 28.9 67 19.4 57 57 S 12 19 29.92 1013 10 16 0.00 0.00
12:53 pm 12:53 Sunny 88 31.1 68 20 52 52 SSW 13 20 29.90 1013 10 16 0.00 0.00
1:53 pm 13:53 Sunny 90 32.2 69 20.6 50 50 S 14 22 29.90 1013 10 16 0.00 0.00
2:53 pm 14:53 Sunny 91 32.8 69 20.6 49 49 SSE 14 22 29.89 1012 10 16 0.00 0.00
3:53 pm 15:53 Sunny 90 32.2 68 20 48 48 SSE 13 20 29.89 1012 10 16 0.00 0.00
4:53 pm 16:53 Sunny 90 32.2 67 19.4 47 47 SSE 10 17 29.88 1012 10 16 0.00 0.00
5:53 pm 17:53 Sunny 90 32.2 66 18.9 45 45 SSE 10 17 29.87 1012 10 16 0.00 0.00
6:53 pm 18:53 Sunny 89 31.7 67 19.4 48 48 SSE 10 17 29.88 1012 10 16 0.00 0.00
7:53 pm 19:53 Sunny 87 30.6 67 19.4 51 51 SSE 10 17 29.89 1012 10 16 0.00 0.00
8:53 pm 20:53 Sunny 83 28.3 67 19.4 59 59 SSE 8 13 29.90 1013 10 16 0.00 0.00
9:53 pm 21:53 Clear 81 27.2 67 19.4 62 62 SSE 9 15 29.90 1013 10 16 0.00 0.00
10:53 pm 22:53 Clear 79 26.1 65 18.3 62 62 S 10 17 29.91 1013 10 16 0.00 0.00
11:53 pm 23:53 Clear 77 25 65 18.3 66 66 S 9 15 29.92 1013 10 16 0.00 0.00

Powered by AerisWeather